[Iaude] MPEC G71: 2024 GT [a=2.81,e=0.62,i=9.4,H=23.4]

mpec at cfa.harvard.edu mpec at cfa.harvard.edu
Fri Apr 5 17:37:34 EDT 2024


M.P.E.C. 2024-G71                                 Issued 2024 April 5, 21:36 UT

     The Minor Planet Electronic Circulars contain information on unusual
         minor planets, routine data on comets and natural satellites,
         and occasional editorial announcements.  They are published
    on behalf of Division F of the International Astronomical Union by the
          Minor Planet Center, Smithsonian Astrophysical Observatory,
                          Cambridge, MA 02138, U.S.A.
			  
             Prepared using the Tamkin Foundation Computer Network

                              MPC at CFA.HARVARD.EDU
            URL https://www.minorplanetcenter.net/    ISSN 1523-6714

                                    2024 GT                                     


Observations:
     K24G00T* C2024 04 04.32373412 20 22.420+26 48 53.60         20.66GVEG071V00
     K24G00T  C2024 04 04.32435812 20 22.535+26 48 48.49         20.63GVEG071V00
     K24G00T  C2024 04 04.32936512 20 23.474+26 48 08.93         20.85GVEG071V00
     K24G00T  C2024 04 04.33372512 20 24.299+26 47 34.44         20.54GVEG071V00
     K24G00T  C2024 04 04.33434912 20 24.414+26 47 29.62         20.59GVEG071V00
     K24G00T  C2024 04 04.33871812 20 25.249+26 46 55.16         20.52GVEG071V00
     K24G00T  C2024 04 04.33934012 20 25.364+26 46 50.02         20.46GVEG071V00
     K24G00T KC2024 04 04.36594212 20 30.397+26 43 18.41         20.86GVEG071I52
     K24G00T KC2024 04 04.36923812 20 31.067+26 42 52.20         20.28GVEG071I52
     K24G00T KC2024 04 04.37254212 20 31.679+26 42 25.99         20.97GVEG071I52
     K24G00T KC2024 04 04.37586912 20 32.298+26 41 59.35         21.00GVEG071I52
     K24G00T 1C2024 04 04.95556 12 22 36.44 +25 25 47.3          20.1 VXEG071033
     K24G00T 1C2024 04 04.95696 12 22 36.74 +25 25 36.2          20.6 VXEG071033
     K24G00T 1C2024 04 04.95835 12 22 37.00 +25 25 25.1          20.4 VXEG071033
     K24G00T 1C2024 04 04.95974 12 22 37.29 +25 25 14.1          20.4 VXEG071033
     K24G00T KB2024 04 04.97964 12 22 42.83 +25 23 02.1          20.0 VqEG071Y66
     K24G00T KB2024 04 04.98021 12 22 42.93 +25 22 57.7          20.1 VqEG071Y66
     K24G00T KB2024 04 04.98078 12 22 43.03 +25 22 53.2          19.9 VqEG071Y66
     K24G00T KB2024 04 04.98135 12 22 43.13 +25 22 48.7          19.8 VqEG071Y66
     K24G00T KB2024 04 04.98191 12 22 43.23 +25 22 44.3          20.1 VqEG071Y66
     K24G00T KB2024 04 04.98248 12 22 43.35 +25 22 39.9          20.0 VqEG071Y66
     K24G00T KB2024 04 05.14938 12 23 18.811+25 00 36.14         20.5 GVEG071734
     K24G00T KB2024 04 05.16117 12 23 21.022+24 59 05.39         20.4 GVEG071734
     K24G00T KC2024 04 05.16322012 23 22.376+24 58 52.32         20.33GVEG071I52
     K24G00T KC2024 04 05.16488012 23 22.690+24 58 39.65         19.87GVEG071I52
     K24G00T KC2024 04 05.16655412 23 23.003+24 58 26.69         20.55GVEG071I52
     K24G00T KC2024 04 05.16822212 23 23.334+24 58 13.80         20.19GVEG071I52
     K24G00T KC2024 04 05.17104312 23 23.54 +24 57 50.3          20.8 GXEG071858
     K24G00T KC2024 04 05.17614712 23 24.47 +24 57 11.0          20.4 GXEG071858
     K24G00T KC2024 04 05.18124912 23 25.43 +24 56 31.2          20.5 GXEG071858
     K24G00T KB2024 04 05.18319 12 23 25.121+24 56 13.88         20.6 GVEG071734
     K24G00T  C2024 04 05.25931212 23 39.736+24 46 24.87         20.1 GVEG071H01
     K24G00T  C2024 04 05.26392712 23 40.575+24 45 48.65         20.3 GVEG071H01
     K24G00T  C2024 04 05.27789112 23 43.087+24 43 59.70         20.2 GVEG071H01
     K24G00T  C2024 04 05.28176712 23 43.785+24 43 29.07         20.4 GVEG071H01
     K24G00T KB2024 04 05.87387012 25 45.51 +23 26 14.1          19.7 GXEG071958
     K24G00T KB2024 04 05.88016112 25 46.55 +23 25 25.6          20.0 GXEG071958
     K24G00T KB2024 04 05.88640512 25 47.68 +23 24 37.5                XEG071958

Observer details:
033 Karl Schwarzschild Observatory, Tautenburg.  Observers S. Melnikov, C.
    Hogner, F. Ludwig, M. Hartmann, B. Stecklum.  Measurer B. Stecklum.
    1.34-m f/3 Schmidt + CCD.
734 Farpoint Observatory, Eskridge.  Observers D. Cromer, G. Hug, D. Goodin,
    R. Valentine, P. Lessig.  Measurer G. Hug.  0.69-m f/3.54 reflector + CMO.
858 Tebbutt Observatory, Edgewood.  Observer F. B. Zoltowski.  0.51-m f/8.1
    Schmidt-Cassegrain + CCD.
958 Observatoire de Dax.  Observer P. Dupouy.  0.50-m f/4.5 Reflector + CMO.
H01 Magdalena Ridge Observatory, Socorro.  Observers W. H. Ryan, E. V. Ryan.
    Measurer W. H. Ryan.  2.4-m f/8.9 Ritchey-Chretien + CCD.
I52 Steward Observatory, Mt. Lemmon Station.  Observers R. A. Kowalski, H.
    Groeller.  Measurers T. Beuden, V. F. Carvajal, D. Fay, J. B. Fazekas, D.
    C. Fuls, A. R. Gibbs, A. D. Grauer, H. Groeller, J. K. Hogan, R. A.
    Kowalski, S. M. Larson, G. J. Leonard, D. Rankin, R. L. Seaman, F. C.
    Shelly, K. W. Wierzchos.  1.0-m prime focus + CCD.
V00 Kitt Peak-Bok.  Observers V. F. Carvajal, K. W. Wierzchos.  Measurers M.
    J. Brucker, C. E. Woodward, T. Beuden, V. F. Carvajal, D. Fay, J. B.
    Fazekas, D. C. Fuls, A. R. Gibbs, H. Groeller, J. K. Hogan, R. A.
    Kowalski, S. M. Larson, C. Lejoly, G. J. Leonard, R. A. Mastaler, R. S.
    McMillan, D. Rankin, R. L. Seaman, F. C. Shelly, K. W. Wierzchos.  2.25-m
    reflector + 4x4K mosaic CCD.
Y66 Two-Meter Twin Telescope, TTT2, Teide.  Observer M. R. Alarcon.
    Measurer M. Serra-Ricart.  0.80-m f/4.38 reflector + CMO.

Orbital elements:
2024 GT                                                  Earth MOID = 0.1260 AU
Epoch 2024 Mar. 31.0 TT = JDT 2460400.5                 MPC                     
M   3.70767              (2000.0)            P               Q                  
n   0.20979926     Peri.  136.50592     -0.97378985     -0.21071786             
a   2.8050035      Node    31.62871     +0.13672909     -0.84315832             
e   0.6151328      Incl.    9.39700     +0.18176491     -0.49465345             
P   4.70           H   23.41          G   0.15           U   8                  
Residuals in seconds of arc
240404 V00  0.0   0.0     240404 033  0.0   0.0     240405 I52  0.2+  0.0
240404 V00  0.1-  0.2-    240404 033  0.3+  0.1-    240405 858  0.2+  0.1-
240404 V00  0.2-  0.1-    240404 Y66  0.2+  0.5+    240405 858  0.1-  0.2+
240404 V00  0.2-  0.1-    240404 Y66  0.2+  0.6+    240405 858  0.1+  0.0
240404 V00  0.2-  0.0     240404 Y66  0.1+  0.5+    240405 734  0.3+  0.0
240404 V00  0.1-  0.2+    240404 Y66  0.1+  0.5+    240405 H01  0.1-  0.1+
240404 V00  0.2-  0.1-    240404 Y66  0.0   0.4+    240405 H01  0.0   0.0
240404 I52  0.1-  0.1+    240404 Y66  0.3+  0.5+    240405 H01  0.0   0.2+
240404 I52  0.4+  0.1+    240405 734  0.2-  0.5-    240405 H01  0.0   0.1-
240404 I52  0.2+  0.1+    240405 734  0.1-  0.3+    240405 958  0.7+  0.6-
240404 I52  0.1-  0.1-    240405 I52  0.0   0.2-    240405 958  0.8-  0.6-
240404 033  0.5-  0.3+    240405 I52  0.0   0.0     240405 958  0.8-  0.5-
240404 033  0.0   0.2+    240405 I52  0.0   0.0

Ephemeris:
2024 GT                  a,e,i = 2.81, 0.62, 9                   q = 1.0796
Date    TT    R. A. (2000) Decl.     Delta      r    Elong.  Phase     V
2024 03 06    09 04 04.5 +67 32 18   0.1869  1.0837   114.7    56.2    22.0
...
2024 03 21    11 06 57.7 +54 43 01   0.1456  1.0841   123.9    49.7    21.3
...
2024 03 29    11 53 55.6 +40 25 48   0.1349  1.0985   135.4    39.7    20.8
...
2024 04 04    12 19 13.2 +27 31 36   0.1361  1.1153   145.8    30.2    20.6
2024 04 05    12 22 45.7 +25 20 32   0.1372  1.1186   147.5    28.7    20.6
2024 04 06    12 26 08.2 +23 10 27   0.1385  1.1220   149.2    27.1    20.6
...
2024 04 12    12 43 24.9 +10 57 09   0.1523  1.1452   158.1    19.0    20.6
...
2024 04 20    13 00 40.1 -01 58 47   0.1839  1.1826   164.1    13.4    20.9
...
2024 05 05    13 23 33.5 -16 10 45   0.2742  1.2691   159.5    16.1    22.0

A. U. Tomatic                (C) Copyright 2024 MPC           M.P.E.C. 2024-G71





More information about the Iaude mailing list